Regional Weather Roundup
Issued by NWS Cleveland, OH

Home | Current Version | Previous Version | Graphics & Text | Print | Product List | Glossary On
Versions: 1 2 3 4 5 6 7 8 9 10 11 12 13 14 15 16 17 18 19 20 21 22 23 24 25 26 27 28 29 30 31 32 33 34 35 36 37 38 39 40 41 42 43 44 45 46 47 48 49 50
000
ASUS41 KCLE 310700
RWRCLE
CLERWRCLE DEF
OHIO REGIONAL WEATHER ROUNDUP
NATIONAL WEATHER SERVICE WILMINGTON, OH
300 AM EDT FRI JUL 31 2015

NOTE: "FAIR" INDICATES FEW OR NO CLOUDS BELOW 12,000 FEET WITH NO
SIGNIFICANT WEATHER AND/OR OBSTRUCTIONS TO VISIBILITY.

OHZ001>008-015>018-024>027-034-035-043-044-310800-
   NORTHWEST OHIO

CITY           SKY/WX    TMP DP  RH WIND       PRES   REMARKS
DEFIANCE       CLEAR     64  58  80 SW3       30.00F
FINDLAY        CLEAR     66  56  70 SW6       30.00S
TOLEDO EXPRESS CLEAR     68  57  68 SW8       29.98F
TOLEDO EXEC    CLEAR     67  58  72 SW5       29.99S
LIMA           CLEAR     66  58  75 SW6       30.03S
$$

OHZ009>014-019>023-028>033-038-089-310800-
   NORTHEAST OHIO

CITY           SKY/WX    TMP DP  RH WIND       PRES   REMARKS
CLE-HOPKINS    CLEAR     66  57  72 SW7       30.00S
CLE-LAKEFRONT  CLEAR     73  62  68 SW12      29.95F
CUY CO. ARPT   NOT AVBL
LORAIN-ELYRIA  CLEAR     63  57  81 SW6       29.99S
ASHTABULA      CLEAR     65  61  87 CALM      29.97S
AKRON-CANTON   CLEAR     66  56  70 W6        30.00F
WOOSTER        NOT AVBL
MANSFIELD      CLEAR     68  56  65 W7        30.02F
YOUNGSTOWN     PTCLDY    65  58  78 CALM      29.99S
$$

OHZ042-051>053-060>062-070>072-077>081-310800-
  SOUTHWEST OHIO

CITY           SKY/WX    TMP DP  RH WIND       PRES   REMARKS
CINC-COVINGTON CLEAR     68  62  83 VRB3      30.07S
CINC-LUNKEN    CLEAR     64  63  96 CALM      30.06F
HAMILTON       CLEAR     64  63  96 CALM      30.07S
DAYTON         NOT AVBL
WRIGHT-PAT AFB CLEAR     64  60  88 S2        30.05S
DAYTON GENERAL CLEAR     66  60  81 CALM      30.05F
WILMINGTON     CLEAR     61  59  93 SW3       30.06S
$$

OHZ036-037-039>041-045>050-054>059-063>069-073>076-082>088-310800-
  CENTRAL AND SOUTHEAST OHIO

CITY           SKY/WX    TMP DP  RH WIND       PRES   REMARKS
COLUMBUS       CLEAR     65  61  87 CALM      30.02F
OSU AIRPORT    CLEAR     64  58  80 W6        30.03F
BOLTON FIELD   NOT AVBL
RICKENBACK AFB NOT AVBL
NEWARK         CLEAR     61  59  93 CALM      30.02F
MARION         CLEAR     66  56  70 W5        30.02F
LANCASTER      CLEAR     59  57  93 CALM      30.03F
ZANESVILLE     CLEAR     62  58  86 CALM      30.02F
NEW PHILLY     CLEAR     59  59 100 CALM      30.01F
$$


USA.gov is the U.S. government's official web portal to all federal, state and local government web resources and services.